Dewpoint
56 55 61 63 63 63 64 64 63 64 64 64 64 64 64 63 63 63 62 62 63 63 63 63 63 62 62 63 63 60 59 54 55 54 55 55 61 64 63 64 65 65 63 40 38 41 43 39 42 41 40 35 39 35 37 37 41 37 29 28 25 28 25 29 23 23 25 22 21 24 23 22 21 23 24 30 36 41 45 48 51 55 55 55 54 55 59 60
58 56 54 60 63 62 63 63 63 63 63 64 64 64 64 64 63 63 62 63 63 63 63 63 63 62 62 62 61 60 57 56 53 53 54 60 64 65 65 65 65 65 53 36 36 38 39 39 44 45 39 33 45 36 37 36 38 33 30 28 25 29 29 30 25 24 21 22 21 23 24 22 21 23 24 25 28 40 40 46 54 54 54 55 56 58 59 59
57 58 56 56 62 63 63 64 63 63 63 63 63 63 63 63 63 62 62 63 63 63 63 63 63 62 61 60 60 60 55 54 54 52 54 63 64 65 66 64 64 65 47 36 38 37 38 40 41 50 45 35 34 32 32 28 35 34 28 24 28 31 29 30 26 23 24 23 22 23 24 22 22 23 25 24 28 34 33 39 48 51 52 54 55 58 58 59
59 59 58 56 57 62 63 63 63 63 63 63 63 63 63 63 63 63 62 63 62 62 63 63 62 61 61 60 60 57 55 53 50 51 55 65 64 64 65 63 65 60 37 37 40 39 41 42 40 43 51 36 38 39 29 31 28 31 26 26 27 31 23 21 23 22 21 23 23 23 23 22 23 23 23 24 30 31 31 37 41 47 54 55 56 57 58 58
58 59 59 57 56 59 62 63 63 63 63 63 63 63 63 63 63 63 63 63 63 63 63 62 62 61 60 60 59 55 53 49 49 51 59 64 65 64 65 65 62 42 39 41 41 42 39 39 40 43 45 47 45 42 33 32 33 32 24 27 28 28 20 20 21 22 22 23 22 23 22 22 23 23 22 27 24 23 27 28 42 47 56 56 56 57 58 58
56 59 58 60 58 58 61 62 63 63 63 63 63 63 63 63 63 62 62 63 62 63 63 62 62 61 60 60 55 54 49 41 48 52 63 63 64 64 63 64 63 40 40 38 38 41 40 43 39 39 44 44 44 37 39 24 29 23 26 25 24 23 22 22 23 22 22 23 22 22 23 22 22 22 22 26 23 23 25 29 40 52 57 57 57 58 58 58
57 58 59 61 61 61 62 61 62 63 63 63 63 63 63 63 63 62 62 62 62 62 62 62 61 61 59 58 55 53 49 48 51 54 63 63 63 63 63 64 57 38 40 39 38 38 42 42 42 41 44 45 44 40 36 27 27 25 21 24 21 23 22 22 21 23 22 23 22 23 23 22 21 20 22 24 25 23 21 23 43 55 57 57 57 57 58 58
56 57 58 60 61 61 61 61 61 62 63 63 63 63 63 63 62 62 62 62 62 62 62 62 60 59 58 54 52 50 49 49 49 51 62 62 60 60 63 58 44 41 40 38 38 38 39 38 39 46 42 36 46 33 32 28 27 22 20 25 24 24 22 22 22 21 22 22 23 22 21 21 22 21 21 21 23 22 32 40 55 57 57 57 57 57 57 57
56 56 56 58 60 60 60 61 61 62 63 63 62 62 63 63 62 62 62 62 62 62 62 61 59 58 58 54 52 49 49 51 52 56 61 58 55 59 57 54 44 36 39 40 39 39 38 39 40 42 38 43 45 32 28 28 27 22 21 23 21 20 21 21 21 21 22 23 21 21 20 20 21 21 19 20 20 22 38 49 56 57 57 57 56 57 57 57
56 56 56 56 58 60 60 60 61 61 63 63 62 63 62 62 62 62 62 62 62 62 62 60 59 58 55 53 53 49 51 54 60 60 60 60 57 57 53 51 42 36 39 39 39 39 39 39 37 40 43 45 43 32 25 27 28 23 22 22 20 19 21 23 21 20 22 22 21 20 20 20 21 18 15 17 19 42 36 50 54 56 57 57 56 57 57 57
56 55 55 56 57 59 60 61 60 61 62 62 62 63 62 62 62 62 62 62 62 61 61 60 59 56 53 53 50 48 53 57 57 60 59 59 57 53 51 49 40 36 39 40 39 39 40 39 38 38 41 42 44 46 34 26 25 21 20 19 18 20 21 21 20 20 22 19 21 20 20 22 20 20 16 15 22 41 39 49 54 55 56 56 56 57 57 57
56 55 55 55 56 57 59 60 61 61 62 62 62 62 62 62 62 62 61 61 61 61 61 60 58 54 52 52 50 49 52 54 57 59 58 58 54 53 50 48 38 38 39 38 40 44 39 38 37 41 39 41 39 41 41 39 21 20 18 17 17 19 18 20 19 20 21 19 20 20 18 18 21 17 18 18 31 43 42 48 53 53 54 55 56 56 57 57
56 57 56 56 56 56 57 60 60 60 61 62 61 61 62 62 62 62 61 61 61 61 60 59 56 54 52 50 51 53 55 52 57 58 58 56 52 47 47 44 41 37 40 38 39 43 39 37 38 34 38 37 40 39 41 28 22 23 20 18 17 18 17 18 22 21 20 19 21 20 16 18 17 18 19 22 40 43 42 45 50 52 52 54 55 56 56 57
56 56 56 56 56 56 56 58 59 58 57 61 62 61 61 62 62 62 61 60 61 61 59 57 54 53 51 49 46 48 52 56 56 56 55 53 52 48 44 43 42 40 43 38 40 40 38 36 35 33 36 38 36 34 33 32 25 24 21 19 22 19 18 19 21 21 18 23 21 17 18 16 17 18 20 24 38 42 39 42 46 49 50 52 53 55 55 56
55 55 56 56 56 56 57 58 59 59 56 57 61 61 62 62 62 62 61 61 61 60 59 56 54 52 50 50 45 48 57 56 53 54 52 52 50 46 43 41 38 37 38 37 38 40 37 39 36 35 39 38 36 33 35 37 31 28 31 21 23 19 20 23 25 19 16 19 19 16 19 16 15 16 16 20 33 40 36 39 44 46 47 49 51 53 54 55
54 55 55 55 56 56 56 57 59 59 58 57 60 60 60 61 61 61 61 60 60 59 55 52 52 52 50 48 50 58 54 53 53 53 53 51 49 48 43 40 40 42 33 32 36 35 38 38 35 35 32 36 38 40 33 35 33 35 27 25 22 20 20 16 19 23 23 19 20 16 16 16 14 15 17 21 29 35 35 35 40 44 45 46 49 51 52 52
53 54 56 55 55 55 56 57 58 58 59 58 60 60 60 60 61 61 60 60 57 55 53 51 52 53 48 49 50 50 49 51 53 52 50 49 46 42 38 39 40 41 33 35 38 38 39 33 32 33 30 37 41 34 31 30 27 27 25 24 30 18 17 15 18 22 27 19 17 18 15 14 12 13 15 22 25 27 30 30 32 39 41 42 45 47 49 50
52 53 55 56 55 56 55 56 58 59 58 58 59 60 60 61 61 59 56 54 54 54 52 54 53 50 50 44 43 45 46 48 51 51 50 47 41 40 39 38 45 43 33 32 36 34 34 31 32 31 29 29 29 31 30 29 28 27 20 18 17 22 17 15 18 16 22 20 16 16 16 15 15 16 16 19 22 23 24 25 23 27 34 36 37 39 43 46
53 53 53 55 55 55 55 56 58 59 59 59 60 60 59 58 56 54 52 51 50 47 46 46 49 43 41 45 43 44 47 49 52 49 48 41 43 37 37 41 45 39 34 31 30 32 31 31 33 29 28 27 27 28 32 26 25 23 24 20 21 16 14 13 15 19 22 17 16 15 15 15 16 16 16 16 20 20 21 20 19 18 20 27 31 32 34 38
53 53 53 54 55 55 56 56 58 59 59 59 58 55 53 49 48 46 50 50 48 47 50 48 50 45 43 42 40 46 54 53 49 48 51 53 36 35 35 40 44 44 30 32 30 32 30 29 29 28 28 27 28 29 29 27 24 21 26 26 21 20 17 16 18 20 22 20 16 15 15 15 15 15 15 15 19 21 20 19 19 19 18 20 25 29 31 32
52 53 54 54 55 55 56 57 58 58 58 58 56 53 47 46 42 40 46 48 47 46 48 49 50 45 43 43 48 49 47 42 45 48 49 53 34 34 31 37 39 36 33 30 30 27 28 27 28 29 28 27 27 28 27 21 23 22 25 25 25 25 18 15 18 22 22 17 17 17 17 17 15 15 15 16 16 16 18 19 19 19 18 19 21 24 27 29
52 53 54 54 55 55 56 57 58 58 58 57 55 53 49 49 52 49 49 43 44 45 47 49 47 42 48 45 46 45 41 40 45 48 51 44 33 32 30 34 35 32 29 27 26 26 27 27 25 26 27 27 26 26 25 24 24 23 27 27 24 22 22 18 18 22 22 19 16 19 16 16 16 16 17 16 15 15 16 18 18 18 20 19 18 20 22 26
52 52 54 54 54 55 55 57 57 57 57 54 53 52 50 52 53 51 48 47 43 45 47 48 41 42 42 44 46 44 42 41 42 46 49 45 35 36 29 29 33 33 28 25 26 26 25 27 26 24 24 25 25 25 24 25 24 27 26 24 20 24 20 17 16 21 21 18 18 20 16 17 16 16 17 18 17 17 18 17 19 23 20 20 18 18 20 21
51 52 53 54 55 55 55 56 57 55 54 55 53 51 53 53 51 48 46 41 39 42 43 48 44 43 40 40 46 46 43 38 43 44 48 40 37 34 29 28 30 29 28 25 26 26 28 24 25 21 23 24 24 24 24 24 21 28 27 24 21 22 20 16 13 20 20 19 22 17 19 16 16 13 13 14 17 18 18 20 20 23 26 24 27 26 25 20
50 52 53 54 54 55 55 56 52 52 54 54 53 53 53 53 51 48 41 40 39 38 44 44 44 43 43 47 46 45 43 43 43 45 46 41 33 28 29 28 27 28 28 26 26 26 26 24 23 19 21 23 25 23 25 26 22 25 28 24 21 19 19 21 23 18 18 18 23 21 14 17 20 21 17 13 15 13 14 18 18 18 20 23 22 22 23 28
50 51 53 53 54 55 55 51 50 54 53 50 52 53 54 54 53 47 40 36 34 37 42 39 45 39 46 40 43 44 43 38 40 44 45 44 45 35 26 25 27 27 25 26 26 26 26 23 24 22 21 23 25 24 26 23 22 22 21 25 21 18 22 26 24 22 16 14 20 18 15 15 18 15 13 15 17 14 14 16 16 17 19 20 22 22 22 22
50 51 52 53 53 54 49 46 53 53 48 50 53 54 54 53 53 46 40 31 32 37 37 42 44 43 43 41 40 40 36 36 42 43 42 48 42 35 29 27 20 21 26 30 25 23 23 20 23 24 22 22 22 20 24 21 21 20 27 26 25 22 23 24 26 22 23 27 24 23 18 12 14 13 14 17 16 15 14 13 15 14 15 19 20 21 22 23
51 50 52 53 53 53 49 53 52 50 50 52 53 54 54 52 52 49 38 25 26 39 36 39 43 47 45 40 42 42 39 38 37 41 43 44 35 35 25 24 26 22 27 28 26 27 22 21 23 24 22 20 18 20 24 22 20 22 24 28 25 21 22 24 24 21 24 18 19 19 22 10 13 14 17 16 12 11 11 10 11 13 15 14 17 20 21 22
51 50 51 52 53 53 51 51 51 49 52 54 53 53 53 52 51 44 33 25 33 32 42 38 48 44 44 39 40 41 37 37 36 37 44 44 41 33 23 22 21 21 26 28 28 23 23 23 22 23 22 19 21 19 23 23 19 24 34 35 34 32 31 29 22 22 19 14 17 18 18 9 14 20 18 18 11 11 12 11 11 12 14 16 18 18 19 20
50 50 50 52 52 51 50 52 52 53 55 53 54 53 52 50 44 35 29 22 34 30 36 38 41 38 41 34 36 37 36 34 38 40 42 40 40 33 26 24 20 21 24 25 26 29 26 33 32 23 22 22 21 18 25 22 20 33 32 28 28 28 26 26 26 22 17 14 18 21 21 13 12 18 14 14 15 9 8 7 6 10 14 15 18 18 22 23
50 50 49 51 49 49 51 48 51 54 53 54 53 51 50 45 35 29 23 29 33 33 36 39 37 40 37 34 33 35 37 36 37 37 37 41 39 38 27 23 28 26 25 24 23 27 27 29 26 28 32 30 22 26 32 33 33 31 26 25 25 23 25 23 25 26 14 14 20 22 21 15 12 14 16 15 12 13 6 4 4 7 13 16 19 23 24 23
50 51 50 50 50 50 48 47 51 54 52 53 51 48 45 31 33 27 25 37 28 30 34 34 38 38 36 36 34 33 31 35 36 34 34 35 34 29 27 21 22 20 20 21 19 25 24 25 28 27 34 27 27 22 25 32 30 28 25 20 19 21 19 17 15 15 15 13 14 16 21 15 15 14 11 10 8 9 11 11 10 13 13 16 19 28 33 36
49 50 50 49 50 49 49 50 53 53 53 52 49 47 37 30 23 32 31 31 28 32 32 36 36 36 35 34 32 32 33 32 35 33 34 36 36 34 32 26 25 21 16 22 23 22 22 26 26 27 28 30 26 19 23 21 27 25 21 22 19 15 13 13 14 11 12 16 16 15 19 13 16 15 19 16 15 14 13 14 15 15 14 16 18 26 34 35
49 51 48 49 50 49 49 52 54 54 52 51 47 41 35 29 26 36 32 33 30 32 33 34 36 35 35 33 32 32 28 30 34 33 34 34 35 32 32 29 25 25 24 23 20 21 16 16 22 26 23 29 26 20 23 23 25 24 27 23 23 20 14 12 10 11 14 17 15 21 11 16 11 12 18 17 18 19 18 18 19 19 19 19 21 30 33 34
49 50 48 48 50 49 49 52 53 53 52 48 43 36 28 28 33 31 31 32 30 31 32 35 34 34 33 32 32 33 31 29 32 33 33 33 32 32 29 26 26 25 25 19 21 18 18 19 26 31 28 29 27 29 29 27 25 25 28 26 21 19 23 13 19 16 12 10 9 13 14 20 14 16 17 18 18 18 20 20 23 24 28 30 31 31 31 33
50 49 48 48 49 49 50 53 53 52 50 45 38 32 30 32 30 35 33 35 30 30 32 33 34 32 32 29 31 31 35 32 31 30 30 32 32 31 32 28 24 23 21 18 22 16 18 16 26 29 30 28 28 30 29 26 17 22 21 19 23 25 18 17 17 18 14 14 12 16 14 16 18 10 10 13 16 14 16 15 17 19 23 29 31 31 32 34
49 48 47 47 48 49 50 52 52 51 49 44 36 31 35 35 37 36 37 32 30 32 32 30 31 31 29 28 29 30 30 31 30 29 27 29 28 29 29 27 25 24 23 22 21 23 17 20 26 25 26 27 29 30 31 29 26 22 18 21 28 31 27 18 12 13 8 10 12 11 10 10 9 12 20 12 11 9 12 13 12 15 21 24 27 31 33 34
48 47 46 46 48 50 51 52 52 50 47 41 34 35 37 36 39 37 34 31 30 32 30 29 30 31 28 28 28 29 30 27 28 28 27 28 26 30 28 27 25 23 23 25 19 22 25 19 26 28 28 29 30 29 26 26 29 24 23 29 18 16 13 15 15 8 4 3 6 9 13 13 13 10 16 9 9 8 8 12 12 12 17 21 24 28 32 33
47 46 42 46 49 51 51 52 51 47 43 38 34 34 36 36 38 34 31 30 31 31 28 29 28 28 28 27 28 29 29 27 28 26 26 26 25 27 27 27 25 24 23 23 19 23 25 18 21 28 28 29 26 26 22 23 26 28 27 21 24 18 20 13 15 16 14 10 3 11 8 7 17 13 13 6 6 12 12 12 11 12 15 18 22 26 30 31
46 43 41 47 50 51 52 51 47 45 41 34 34 34 38 33 35 33 31 30 30 29 28 28 29 26 27 28 29 27 28 28 27 26 26 26 25 23 27 27 24 24 23 24 23 29 19 26 19 25 26 26 23 25 23 24 22 21 21 20 19 19 21 21 17 15 12 8 7 5 6 11 16 17 12 8 5 4 4 8 15 19 20 19 21 24 29 31
44 40 42 49 50 51 51 49 43 39 38 39 39 36 36 33 34 31 31 32 31 32 28 28 27 26 27 27 27 28 27 27 27 25 25 24 24 21 25 26 25 23 24 25 26 25 21 19 20 25 24 23 24 26 28 25 24 22 21 20 18 17 14 12 14 18 13 7 8 2 9 14 17 17 13 10 9 9 10 13 17 18 19 21 24 25 27 31
40 37 41 51 50 50 47 39 39 43 40 37 36 37 35 36 32 30 30 31 32 28 30 29 29 28 28 27 28 28 26 26 27 25 24 23 25 22 24 24 23 24 22 20 20 27 25 26 26 21 25 25 24 31 31 30 28 26 23 21 23 18 19 14 10 16 13 14 15 13 3 10 16 17 15 13 11 10 19 19 19 21 21 21 24 26 28 33
37 37 49 50 50 49 45 38 41 39 37 40 38 35 34 31 31 31 30 31 30 30 30 29 28 28 29 28 28 27 27 25 26 25 25 24 24 25 27 23 25 26 23 22 24 24 31 23 23 22 24 26 26 27 30 29 28 26 26 25 22 19 20 21 16 20 17 13 10 8 6 12 14 23 17 14 17 26 26 25 22 23 25 28 29 28 31 36
40 43 44 50 50 48 42 33 32 33 37 37 37 34 34 31 31 30 29 30 30 28 29 28 29 28 28 30 28 27 27 23 26 26 24 25 23 27 27 27 23 24 21 21 18 30 17 17 21 16 15 19 21 24 24 26 26 24 24 26 26 25 25 24 20 18 12 18 16 12 9 7 21 23 24 21 20 18 18 17 25 24 24 26 30 31 35 37
44 46 45 46 49 47 39 40 37 35 36 34 33 32 28 27 31 30 30 30 30 28 29 27 28 29 28 29 29 28 28 26 24 26 27 26 25 31 28 28 26 22 22 28 30 27 22 24 22 17 15 13 12 16 17 21 25 25 25 25 26 24 21 17 14 14 12 17 16 13 11 16 15 18 18 18 19 17 18 20 21 23 22 22 26 32 37 36
40 32 38 41 45 45 43 44 40 37 36 34 33 31 29 26 29 31 31 30 30 30 26 29 29 29 28 28 28 27 27 27 25 25 24 24 27 29 28 29 27 26 28 32 31 23 20 25 20 18 18 15 16 18 26 28 25 22 24 25 25 25 23 21 22 17 13 16 15 15 16 16 12 15 15 16 17 17 16 21 21 21 21 23 27 32 35 36
41 36 38 32 40 42 40 39 39 39 35 35 32 31 28 27 27 29 32 28 31 29 29 28 28 26 27 27 27 26 27 25 26 25 25 24 26 28 29 29 27 28 34 31 29 26 26 22 22 20 20 18 20 25 26 26 24 23 24 24 25 25 25 23 20 16 20 17 13 18 20 16 17 20 20 19 20 20 21 21 21 22 23 23 25 33 37 35
34 38 40 41 36 32 36 35 40 38 36 34 32 31 28 26 26 26 30 32 31 29 25 27 28 28 27 27 27 25 26 25 25 24 25 26 27 27 27 29 27 32 30 26 29 22 22 20 23 21 20 20 25 25 27 25 24 24 24 24 25 25 25 23 23 21 20 17 13 19 19 18 17 17 18 17 18 16 14 17 19 19 20 27 33 34 36 37
38 37 39 42 36 40 38 36 38 39 35 34 31 31 28 26 25 27 27 30 28 25 27 24 26 27 28 28 27 25 25 23 23 25 25 27 26 26 24 26 27 30 26 25 26 26 20 19 23 22 20 21 22 26 27 24 23 24 24 24 25 25 24 23 22 23 20 18 19 22 23 21 21 19 16 16 18 18 17 22 21 18 20 28 33 33 33 35
36 37 33 37 37 39 37 36 37 36 34 34 30 30 28 26 26 27 28 28 25 25 27 25 26 27 28 28 26 25 25 25 24 23 25 26 27 24 24 24 25 25 24 25 25 24 19 17 26 22 17 18 22 26 26 24 24 22 24 24 24 25 25 25 23 23 24 22 22 23 22 21 22 20 20 19 18 22 20 17 18 20 20 26 31 32 34 34
37 39 38 37 35 38 37 35 35 34 33 32 30 30 28 27 26 27 28 30 26 24 25 24 26 27 28 27 26 26 27 26 26 25 27 27 25 26 23 22 26 26 25 25 24 24 22 16 20 20 18 13 20 24 25 23 21 20 22 24 24 23 23 24 24 24 22 21 22 22 21 19 22 20 20 20 21 20 18 18 19 21 21 22 25 27 30 32
39 39 40 39 33 38 36 36 35 34 31 32 31 30 28 27 27 28 27 31 33 28 26 26 27 26 26 27 25 26 28 27 28 27 28 27 27 26 26 27 27 25 26 25 27 26 22 21 18 17 18 14 16 24 23 20 17 16 20 22 24 24 24 25 25 26 24 23 22 21 18 23 21 22 20 22 20 19 19 19 20 21 23 22 22 23 26 30